This demonstration page uses our WeatherBlox Daily Observations layout. Learn more.

Hourly Observations for September 27, 2020

Temp ( °F °C ) Dew Point ( °F °C ) Humidity (%) Winds ( mph kmh ) Pressure ( in mb ) Visibility ( mi km ) Precip ( " mm )
12:53 am 00:53 Clear 63 17.2 60 15.6 90 90 Calm 29.91 1013 10 16.0934 0 0
1:53 am 01:53 Clear 60 15.6 58 14.4 93 93 Calm 29.91 1013 10 16.0934 0 0
2:53 am 02:53 Clear 59 15 57 13.9 93 93 Calm 29.91 1013 10 16.0934 0 0
3:53 am 03:53 Clear 57 13.9 55 12.8 93 93 Calm 29.91 1013 10 16.0934 0 0
4:20 am 04:20 Clear with Mist and Fog 56 13.3 54 12.2 93 93 Calm 29.91 1013 1.75 2.816345 0 0
4:26 am 04:26 Clear with Mist and Fog 56 13.3 55 12.8 97 97 Calm 29.91 1013 0.75 1.207005 0 0
4:50 am 04:50 Clear with Mist and Fog 55 13 55 13 100 100 Calm 29.91 1013 2.5 4.02335 0 0
4:53 am 04:53 Clear with Mist and Fog 56 13.3 55 12.8 97 97 Calm 29.9 1013 2.5 4.02335 0 0
4:56 am 04:56 Clear with Mist and Fog 56 13.3 55 12.8 97 97 Calm 29.91 1013 0.75 1.207005 0 0
5:05 am 05:05 Partly Cloudy with Fog 56 13.3 55 12.8 97 97 Calm 29.91 1013 0.25 0.402335 0 0
5:21 am 05:21 Mostly Cloudy with Mist and Fog 57 13.9 56 13.3 96 96 Calm 29.92 1013 1.5 2.41401 0 0
5:23 am 05:23 Mostly Cloudy with Mist and Fog 57 13.9 56 13.3 96 96 Calm 29.92 1013 2.5 4.02335 0 0
5:30 am 05:30 Cloudy 58 14.4 57 13.9 97 97 Calm 29.91 1013 8 12.87472 0 0
5:53 am 05:53 Partly Cloudy 58 14.4 57 13.9 97 97 Calm 29.9 1013 8 12.87472 0 0
6:53 am 06:53 Clear 54 12.2 54 12.2 100 100 Calm 29.91 1013 7 11.26538 0 0
7:11 am 07:11 Mostly Clear with Mist and Fog 54 12.2 53 11.7 97 97 Calm 29.92 1013 1.25 2.011675 0 0
7:14 am 07:14 Mostly Cloudy with Mist and Fog 55 12.8 54 12.2 96 96 Calm 29.92 1013 0.75 1.207005 0 0
7:23 am 07:23 Clear with Mist and Fog 56 13.3 54 12.2 93 93 Calm 29.92 1013 1.75 2.816345 0 0
7:25 am 07:25 Clear with Mist and Fog 56 13.3 54 12.2 93 93 Calm 29.92 1013 3 4.82802 0 0
7:49 am 07:49 Sunny with Mist and Fog 55 13 54 12 94 94 Calm 29.92 1013 1.5 2.41401 0 0
7:53 am 07:53 Sunny with Mist and Fog 55 12.8 54 12.2 96 96 Calm 29.91 1013 1.25 2.011675 0 0
8:00 am 08:00 Sunny with Mist and Fog 55 12.8 54 12.2 96 96 Calm 29.92 1013 2 3.21868 0 0
8:08 am 08:08 Sunny with Mist and Fog 56 13.3 55 12.8 97 97 Calm 29.92 1013 5 8.0467 0 0
8:53 am 08:53 Sunny 63 17.2 61 16.1 93 93 VRB 3 6 29.92 1013 10 16.0934 0 0
9:53 am 09:53 Sunny 69 20.6 62 16.7 78 78 VRB 6 9 29.92 1013 10 16.0934 0 0
10:53 am 10:53 Mostly Sunny 73 22.8 61 16.1 66 66 VRB 6 9 29.9 1013 10 16.0934 0 0
11:38 am 11:38 Mostly Cloudy 73 22.8 61 16.1 66 66 SW 8 13 29.89 1012 10 16.0934 0 0
11:53 am 11:53 Cloudy 73 22.8 61 16.1 66 66 SSW 8 13 29.89 1012 10 16.0934 0 0
12:07 pm 12:07 Cloudy 73 22.8 61 16.1 66 66 SW 10 17 29.88 1012 10 16.0934 0 0
12:53 pm 12:53 Cloudy 74 23.3 61 16.1 64 64 VRB 7 11 29.87 1012 10 16.0934 0 0
1:53 pm 13:53 Mostly Cloudy 76 24.4 60 15.6 58 58 SSW 12 19 29.86 1011 10 16.0934 0 0
2:53 pm 14:53 Mostly Sunny 79 26.1 61 16.1 54 54 VRB 7 11 29.82 1010 10 16.0934 0 0
3:53 pm 15:53 Mostly Sunny 79 26.1 60 15.6 52 52 S 8 13 29.8 1009 10 16.0934 0 0
4:53 pm 16:53 Sunny 79 26.1 59 15 50 50 SSW 9 15 29.79 1009 10 16.0934 0 0
5:53 pm 17:53 Sunny 78 25.6 59 15 52 52 SW 7 11 29.8 1009 10 16.0934 0 0
6:53 pm 18:53 Sunny 75 23.9 59 15 58 58 VRB 6 9 29.8 1009 10 16.0934 0 0
7:53 pm 19:53 Clear 68 20 60 15.6 76 76 Calm 29.8 1009 10 16.0934 0 0
8:53 pm 20:53 Clear 63 17.2 58 14.4 84 84 Calm 29.82 1010 10 16.0934 0 0
9:53 pm 21:53 Clear 61 16.1 58 14.4 90 90 Calm 29.8 1009 10 16.0934 0 0
10:53 pm 22:53 Partly Cloudy 59 15 57 13.9 93 93 Calm 29.8 1009 10 16.0934 0 0
11:53 pm 23:53 Partly Cloudy 59 15 57 13.9 93 93 Calm 29.79 1009 9 14.48406 0 0

Powered by AerisWeather